Time,TemperatureF,DewpointF,PressureIn,WindDirection,WindDirectionDegrees,WindSpeedMPH,WindSpeedGustMPH,Humidity,HourlyPrecipIn,Conditions,Clouds,dailyrainin,SoftwareType,DateUTC
2013-10-17 00:13:00,51.0,47.0,30.00,NW,316,0.0,2.0,86,0.00,,,0.06,,2013-10-17 05:13:00,
2013-10-17 00:23:00,51.0,47.0,30.00,NW,316,0.0,1.0,86,0.00,,,0.06,,2013-10-17 05:23:00,
2013-10-17 00:42:00,51.0,47.0,30.00,NW,312,0.0,1.0,86,0.00,,,0.06,,2013-10-17 05:42:00,
2013-10-17 00:52:00,51.0,47.0,30.01,NW,311,0.0,0.0,87,0.00,,,0.06,,2013-10-17 05:52:00,
2013-10-17 01:13:00,51.0,47.0,30.01,WSW,248,0.0,0.0,87,0.00,,,0.06,,2013-10-17 06:13:00,
2013-10-17 01:22:00,51.0,46.0,29.99,NE,37,0.0,0.0,84,0.00,,,0.06,,2013-10-17 06:22:00,
2013-10-17 01:42:00,51.0,47.0,30.00,WSW,243,0.0,1.0,86,0.00,,,0.06,,2013-10-17 06:42:00,
2013-10-17 01:52:00,51.0,47.0,30.00,WSW,243,0.0,1.0,85,0.00,,,0.06,,2013-10-17 06:52:00,
2013-10-17 02:11:00,51.0,47.0,29.99,WSW,244,0.0,0.0,85,0.00,,,0.06,,2013-10-17 07:11:00,
2013-10-17 02:22:00,51.0,47.0,29.99,WSW,243,0.0,1.0,86,0.00,,,0.06,,2013-10-17 07:22:00,
2013-10-17 02:43:00,51.0,48.0,29.99,WSW,242,0.0,1.0,89,0.00,,,0.06,,2013-10-17 07:43:00,
2013-10-17 02:52:00,51.0,48.0,29.99,SW,222,0.0,1.0,91,0.01,,,0.07,,2013-10-17 07:52:00,
2013-10-17 03:11:00,50.0,48.0,29.99,SW,236,0.0,1.0,92,0.01,,,0.07,,2013-10-17 08:11:00,
2013-10-17 03:21:00,50.0,48.0,29.98,SSW,192,0.0,1.0,94,0.01,,,0.07,,2013-10-17 08:21:00,
2013-10-17 03:42:00,50.0,48.0,29.98,South,191,0.0,1.0,94,0.01,,,0.07,,2013-10-17 08:42:00,
2013-10-17 03:52:00,49.0,48.0,29.98,South,191,0.0,0.0,95,0.00,,,0.07,,2013-10-17 08:52:00,
2013-10-17 04:11:00,49.0,48.0,29.98,SSW,192,0.0,0.0,95,0.00,,,0.07,,2013-10-17 09:11:00,
2013-10-17 04:22:00,48.0,47.0,29.98,SSW,192,0.0,0.0,95,0.00,,,0.07,,2013-10-17 09:22:00,
2013-10-17 04:43:00,47.0,46.0,29.99,SSW,192,0.0,0.0,96,0.00,,,0.07,,2013-10-17 09:43:00,
2013-10-17 04:53:00,47.0,46.0,29.99,SSW,192,0.0,0.0,96,0.00,,,0.07,,2013-10-17 09:53:00,
2013-10-17 05:12:00,47.0,46.0,30.00,South,191,0.0,0.0,97,0.00,,,0.07,,2013-10-17 10:12:00,
2013-10-17 05:23:00,47.0,46.0,30.00,South,191,0.0,0.0,96,0.00,,,0.07,,2013-10-17 10:23:00,
2013-10-17 05:42:00,47.0,46.0,30.01,South,191,0.0,0.0,97,0.00,,,0.07,,2013-10-17 10:42:00,
2013-10-17 05:53:00,47.0,46.0,30.00,SSW,192,0.0,1.0,97,0.00,,,0.07,,2013-10-17 10:53:00,
2013-10-17 06:11:00,46.0,45.0,30.00,South,191,0.0,1.0,97,0.00,,,0.07,,2013-10-17 11:11:00,
2013-10-17 06:22:00,47.0,46.0,30.00,NW,314,0.0,2.0,98,0.00,,,0.07,,2013-10-17 11:22:00,
2013-10-17 06:42:00,47.0,46.0,30.01,WNW,284,0.0,2.0,96,0.00,,,0.07,,2013-10-17 11:42:00,
2013-10-17 06:52:00,47.0,46.0,30.01,West,268,0.0,3.0,96,0.00,,,0.07,,2013-10-17 11:52:00,
2013-10-17 07:12:00,46.0,45.0,30.01,WSW,242,0.0,1.0,96,0.00,,,0.07,,2013-10-17 12:12:00,
2013-10-17 07:22:00,46.0,45.0,30.01,WSW,242,0.0,0.0,96,0.00,,,0.07,,2013-10-17 12:22:00,
2013-10-17 07:42:00,45.0,44.0,30.01,WSW,242,0.0,0.0,96,0.00,,,0.07,,2013-10-17 12:42:00,
2013-10-17 07:52:00,45.0,44.0,30.02,WSW,242,0.0,0.0,97,0.00,,,0.07,,2013-10-17 12:52:00,
2013-10-17 08:11:00,45.0,44.0,30.02,WSW,241,0.0,0.0,97,0.00,,,0.07,,2013-10-17 13:11:00,
2013-10-17 08:22:00,45.0,44.0,30.02,WSW,242,0.0,0.0,98,0.00,,,0.07,,2013-10-17 13:22:00,
2013-10-17 08:42:00,45.0,44.0,30.03,WSW,242,0.0,0.0,98,0.00,,,0.07,,2013-10-17 13:42:00,
2013-10-17 08:52:00,47.0,46.0,30.03,SSW,210,0.0,2.0,98,0.00,,,0.07,,2013-10-17 13:52:00,
2013-10-17 09:11:00,48.0,47.0,30.03,South,173,0.0,2.0,98,0.00,,,0.07,,2013-10-17 14:11:00,
2013-10-17 09:21:00,49.0,48.0,30.03,South,169,1.0,2.0,97,0.00,,,0.07,,2013-10-17 14:21:00,
2013-10-17 09:42:00,50.0,49.0,30.03,South,183,1.0,4.0,96,0.00,,,0.07,,2013-10-17 14:42:00,
2013-10-17 09:52:00,51.0,49.0,30.03,SW,219,1.0,4.0,94,0.00,,,0.07,,2013-10-17 14:52:00,
2013-10-17 10:11:00,51.0,48.0,30.03,SSW,211,1.0,3.0,91,0.00,,,0.07,,2013-10-17 15:11:00,
2013-10-17 10:22:00,52.0,49.0,30.03,SW,228,2.0,4.0,89,0.00,,,0.07,,2013-10-17 15:22:00,
2013-10-17 10:43:00,53.0,50.0,30.03,West,268,0.0,3.0,88,0.00,,,0.07,,2013-10-17 15:43:00,
2013-10-17 10:53:00,54.0,50.0,30.03,SW,234,2.0,6.0,85,0.00,,,0.07,,2013-10-17 15:53:00,
2013-10-17 11:12:00,56.0,50.0,30.03,WSW,255,1.0,5.0,81,0.00,,,0.07,,2013-10-17 16:12:00,
2013-10-17 11:23:00,57.0,50.0,30.04,West,270,1.0,6.0,76,0.00,,,0.07,,2013-10-17 16:23:00,
2013-10-17 11:42:00,59.0,49.0,30.03,WNW,297,2.0,5.0,70,0.00,,,0.07,,2013-10-17 16:42:00,
2013-10-17 11:53:00,59.0,48.0,30.03,West,280,2.0,9.0,68,0.00,,,0.07,,2013-10-17 16:53:00,
2013-10-17 12:12:00,60.0,49.0,30.02,WSW,242,2.0,9.0,68,0.00,,,0.07,,2013-10-17 17:12:00,
2013-10-17 12:22:00,61.0,50.0,30.02,SSE,166,1.0,4.0,66,0.00,,,0.07,,2013-10-17 17:22:00,
2013-10-17 12:42:00,61.0,48.0,30.01,NW,318,1.0,7.0,63,0.00,,,0.07,,2013-10-17 17:42:00,
2013-10-17 12:53:00,62.0,48.0,30.01,NNW,333,2.0,6.0,60,0.00,,,0.07,,2013-10-17 17:53:00,
2013-10-17 13:11:00,62.0,48.0,30.01,South,169,2.0,8.0,60,0.00,,,0.07,,2013-10-17 18:11:00,
2013-10-17 13:21:00,63.0,48.0,30.00,WNW,298,1.0,7.0,59,0.00,,,0.07,,2013-10-17 18:21:00,
2013-10-17 13:42:00,63.0,46.0,30.00,West,274,3.0,8.0,54,0.00,,,0.07,,2013-10-17 18:42:00,
2013-10-17 13:52:00,63.0,46.0,29.99,NNE,18,3.0,9.0,53,0.00,,,0.07,,2013-10-17 18:52:00,
2013-10-17 14:11:00,64.0,47.0,29.99,SW,215,2.0,6.0,55,0.00,,,0.07,,2013-10-17 19:11:00,
2013-10-17 14:21:00,64.0,47.0,29.98,West,264,2.0,6.0,55,0.00,,,0.07,,2013-10-17 19:21:00,
2013-10-17 14:42:00,64.0,47.0,29.98,West,262,2.0,11.0,54,0.00,,,0.07,,2013-10-17 19:42:00,
2013-10-17 14:53:00,64.0,47.0,29.98,ENE,78,0.0,7.0,54,0.00,,,0.07,,2013-10-17 19:53:00,
2013-10-17 15:11:00,65.0,47.0,29.98,WNW,295,2.0,6.0,52,0.00,,,0.07,,2013-10-17 20:11:00,
2013-10-17 15:22:00,66.0,49.0,29.97,West,280,1.0,4.0,54,0.00,,,0.07,,2013-10-17 20:22:00,
2013-10-17 15:42:00,65.0,47.0,29.97,NW,325,0.0,6.0,53,0.00,,,0.07,,2013-10-17 20:42:00,
2013-10-17 15:52:00,65.0,46.0,29.97,NW,304,1.0,9.0,51,0.00,,,0.07,,2013-10-17 20:52:00,
2013-10-17 16:11:00,65.0,47.0,29.96,West,281,1.0,5.0,52,0.00,,,0.07,,2013-10-17 21:11:00,
2013-10-17 16:22:00,65.0,46.0,29.96,NNE,23,2.0,5.0,51,0.00,,,0.07,,2013-10-17 21:22:00,
2013-10-17 16:44:00,65.0,47.0,29.96,NNW,335,1.0,4.0,53,0.00,,,0.07,,2013-10-17 21:44:00,
2013-10-17 16:54:00,66.0,47.0,29.96,WSW,250,2.0,5.0,51,0.00,,,0.07,,2013-10-17 21:54:00,
2013-10-17 17:14:00,66.0,48.0,29.96,NW,311,1.0,4.0,52,0.00,,,0.07,,2013-10-17 22:14:00,
2013-10-17 17:24:00,66.0,48.0,29.96,WSW,256,0.0,3.0,53,0.00,,,0.07,,2013-10-17 22:24:00,
2013-10-17 17:43:00,66.0,49.0,29.96,WSW,250,0.0,2.0,54,0.00,,,0.07,,2013-10-17 22:43:00,
2013-10-17 17:53:00,64.0,47.0,29.96,NW,314,0.0,2.0,54,0.00,,,0.07,,2013-10-17 22:53:00,
2013-10-17 18:13:00,63.0,48.0,29.96,West,260,0.0,2.0,57,0.00,,,0.07,,2013-10-17 23:13:00,
2013-10-17 18:22:00,62.0,47.0,29.96,West,277,0.0,2.0,59,0.00,,,0.07,,2013-10-17 23:22:00,
2013-10-17 18:43:00,60.0,47.0,29.96,North,7,0.0,1.0,63,0.00,,,0.07,,2013-10-17 23:43:00,
2013-10-17 18:53:00,58.0,47.0,29.96,North,9,0.0,0.0,67,0.00,,,0.07,,2013-10-17 23:53:00,
2013-10-17 19:12:00,56.0,47.0,29.96,North,8,0.0,0.0,72,0.00,,,0.07,,2013-10-18 00:12:00,
2013-10-17 19:22:00,55.0,48.0,29.96,North,8,0.0,0.0,77,0.00,,,0.02,,2013-10-18 00:22:00,
2013-10-17 19:42:00,53.0,48.0,29.97,North,8,0.0,0.0,83,0.00,,,0.02,,2013-10-18 00:42:00,
2013-10-17 19:53:00,51.0,47.0,29.97,North,9,0.0,0.0,86,0.00,,,0.02,,2013-10-18 00:53:00,
2013-10-17 20:12:00,51.0,48.0,29.97,North,9,0.0,0.0,89,0.00,,,0.02,,2013-10-18 01:12:00,
2013-10-17 20:21:00,50.0,47.0,29.97,North,8,0.0,0.0,90,0.00,,,0.02,,2013-10-18 01:21:00,
2013-10-17 20:42:00,49.0,47.0,29.98,North,9,0.0,0.0,92,0.00,,,0.02,,2013-10-18 01:42:00,
2013-10-17 20:52:00,48.0,46.0,29.98,North,9,0.0,0.0,93,0.00,,,0.02,,2013-10-18 01:52:00,
2013-10-17 21:11:00,48.0,46.0,29.98,North,9,0.0,0.0,94,0.00,,,0.02,,2013-10-18 02:11:00,
2013-10-17 21:22:00,47.0,45.0,29.98,North,9,0.0,1.0,94,0.00,,,0.01,,2013-10-18 02:22:00,
2013-10-17 21:42:00,47.0,45.0,29.98,North,9,0.0,0.0,94,0.00,,,0.01,,2013-10-18 02:42:00,
2013-10-17 21:52:00,47.0,46.0,29.99,North,8,0.0,0.0,96,0.00,,,0.01,,2013-10-18 02:52:00,
2013-10-17 22:11:00,46.0,45.0,30.00,North,9,0.0,0.0,96,0.00,,,0.01,,2013-10-18 03:11:00,
2013-10-17 22:22:00,46.0,45.0,30.00,North,9,0.0,0.0,96,0.00,,,0.01,,2013-10-18 03:22:00,
2013-10-17 22:55:00,45.0,44.0,30.00,North,9,0.0,0.0,97,0.00,,,0.01,,2013-10-18 03:55:00,
2013-10-17 23:14:00,45.0,44.0,30.00,North,9,0.0,0.0,97,0.00,,,0.01,,2013-10-18 04:14:00,
2013-10-17 23:24:00,45.0,44.0,30.01,North,9,0.0,1.0,97,0.00,,,0.01,,2013-10-18 04:24:00,
2013-10-17 23:53:00,44.0,43.0,30.01,North,9,0.0,0.0,97,0.00,,,0.01,,2013-10-18 04:53:00,